Regional Weather Roundup
Issued by NWS

Home | Current Version | Previous Version | Text Only | Print | Product List | Glossary Off
Versions: 1 2 3 4 5 6 7 8 9 10 11 12 13 14 15 16 17 18 19 20 21 22 23 24 25 26 27 28 29 30 31 32 33 34 35 36 37 38 39 40 41 42 43 44 45 46 47 48 49 50

000
ASUS43 KFSD 311110
RWRSD

WEATHER ROUNDUP FOR SOUTH DAKOTA
NATIONAL WEATHER SERVICE SIOUX FALLS SD
600 AM CDT TUE MAY 31 2016

NOTE: "FAIR" INDICATES FEW OR NO CLOUDS BELOW 12,000 FEET WITH NO
SIGNIFICANT WEATHER AND/OR OBSTRUCTIONS TO VISIBILITY.


SDZ001>005-009-010-012>017-311200-
NORTHWEST AND NORTH CENTRAL SOUTH DAKOTA

CITY           SKY/WX    TMP DP  RH WIND       PRES   REMARKS
BUFFALO          N/A     48  40  73 W22G32    29.85F
FAITH            N/A     47  36  65 W20       29.91F
MOBRIDGE       CLOUDY    52  45  77 W6        29.85R
$$

SDZ012>016-024>037-041>051-057-063-072>074-311200-
SOUTHWEST AND SOUTH CENTRAL SOUTH DAKOTA

CITY           SKY/WX    TMP DP  RH WIND       PRES   REMARKS
RAPID CTY ARPT CLEAR     43  33  68 W8        29.99F
PIERRE         CLEAR     50  44  80 W16       29.93R
CUSTER         CLEAR     41  30  65 W12G20    30.04S
ELLSWORTH AFB  CLEAR     46  34  63 W7        29.98F
PHILIP         CLOUDY    45  39  79 W8        29.99R
PINE RIDGE     CLOUDY    44  41  89 CALM      30.05S
WINNER         FAIR      51  46  83 W13       29.97R
$$

SDZ004>011-016>023-039-040-311200-
NORTHEAST SOUTH DAKOTA

CITY           SKY/WX    TMP DP  RH WIND       PRES   REMARKS
ABERDEEN       PTCLDY    57  53  86 W10       29.82S
WATERTOWN      MOCLDY    58  54  86 W13G22    29.82S
BROOKINGS      CLOUDY    58  55  90 W13       29.85R
SISSETON         N/A     60  57  89 W5        29.77S
$$

SDZ017-020-022-023-036>040-048>070-311200-
SOUTHEAST SOUTH DAKOTA

CITY           SKY/WX    TMP DP  RH WIND       PRES   REMARKS
SIOUX FALLS    CLOUDY    60  55  83 NW12      29.89R
HURON          MOCLDY    55  52  89 W12       29.87S
CHAMBERLAIN    CLEAR     53  50  91 W8        29.95R
MITCHELL       CLOUDY    57  54  89 W8        29.90R
YANKTON        CLOUDY    61  54  77 W10       29.90R
$$

ABBREVIATIONS USED IN REMARKS
   TC - TEMPERATURE IN CELSIUS
  WCI - WIND CHILL INDEX
   HX - HEAT INDEX
  VSB - VISIBILITY




USA.gov is the U.S. government's official web portal to all federal, state and local government web resources and services.